Location: Lombard
(41.8800°N, 88.0080°W)
Time: 22:48:49
(UTC-05:00)

Tiros 1 - Pass Details

Date: 27 January 2023
Orbit: 628 x 662 km, 48.4° (Epoch: 20 March)

Event Time Altitude Azimuth Distance (km) Brightness Sun altitude
Rises 03:12:51 0° 241° (WSW) 2,911 - -43.9°
Reaches altitude 10° 03:15:09 10° 241° (WSW) 2,009 - -43.4°
Maximum altitude 03:19:46 89° 320° (NW) 642 - -42.6°
Drops below altitude 10° 03:24:29 10° 62° (ENE) 2,039 - -41.8°
Exits shadow 03:24:46 - 62° (ENE) 2,146 10.5 -41.7°
Sets 03:26:50 0° 63° (ENE) 2,956 11.3 -41.3°
